Location: Pedholt
(56.0260°N, 10.2097°E)
Time: 20:31:20
(UTC+00:00)

Transit 2A Rocket - Pass Details

Date: 28 July 2021
Orbit: 586 x 917 km, 66.7° (Epoch: 27 September)

Event Time Altitude Azimuth Distance (km) Brightness Sun altitude
Rises 00:18:01 0° 310° (NW) 3,243 8.6 -14.2°
Reaches altitude 10° 00:21:02 10° 292° (WNW) 2,375 7.6 -14.1°
Maximum altitude 00:24:38 18° 251° (WSW) 1,930 6.8 -14.0°
Enters shadow 00:26:39 15° 226° (SW) 2,120 6.8 -13.9°
Drops below altitude 10° 00:28:24 10° 210° (SSW) 2,498 - -13.8°
Sets 00:31:42 0° 192° (SSW) 3,477 - -13.7°
